Location: ČR
(50.0000°N, 15.0000°E)
Time: 04:02:49
(UTC+02:00)

S-56A Canister/Altair - All Passes

Search period start: 16 April 2026 00:00
Search period end: 26 April 2026 00:00
Orbit: 632 x 2485 km, 38.9° (Epoch: 15 April)

Date Brightness Start Highest point End Pass type
(mag) Time Alt. Az. Time Alt. Az. Time Alt. Az.
16 Apr - 05:09:18 10° SSW 05:18:24 29° SE 05:29:37 10° E visible
16 Apr - 07:10:33 10° SW 07:22:19 49° SSE 07:36:20 10° E daylight
16 Apr - 09:14:16 10° WSW 09:27:30 52° S 09:41:31 10° ESE daylight
16 Apr - 11:19:32 10° W 11:32:23 38° SSW 11:44:34 10° SSE daylight
16 Apr - 13:28:00 10° W 13:35:39 16° SW 13:42:47 10° SSW daylight
17 Apr - 04:35:02 10° S 04:43:14 25° SE 04:53:20 10° E visible
17 Apr - 06:35:39 10° SW 06:46:45 46° SSE 07:00:29 10° E daylight
17 Apr - 08:38:58 10° WSW 08:51:46 53° S 09:06:00 10° ESE daylight
17 Apr - 10:43:52 10° W 10:56:49 40° SSW 11:09:34 10° SE daylight
17 Apr - 12:51:19 10° W 13:00:26 19° SW 13:08:59 10° S daylight
18 Apr - 04:01:00 10° S 04:08:09 21° SE 04:16:54 10° E visible
18 Apr - 06:00:51 10° SW 06:11:16 43° SSE 06:24:32 10° E daylight
18 Apr - 08:03:47 10° WSW 08:16:04 53° S 08:30:22 10° ESE daylight
18 Apr - 10:08:18 10° W 10:21:11 43° SSW 10:34:25 10° SE daylight
18 Apr - 12:15:00 10° W 12:25:08 23° SW 12:34:49 10° S daylight
19 Apr - 03:27:16 10° SSE 03:33:11 17° SE 03:40:14 10° E visible
19 Apr - 05:26:11 10° SW 05:35:53 40° SSE 05:48:31 10° E visible
19 Apr - 07:28:41 10° WSW 07:40:24 52° S 07:54:39 10° ESE daylight
19 Apr - 09:32:52 10° W 09:45:32 45° SSW 09:59:08 10° SE daylight
19 Apr - 11:38:56 10° W 11:49:46 26° SW 12:00:22 10° S daylight
20 Apr - 02:54:03 10° SSE 02:58:18 14° SE 03:03:08 10° ESE visible
20 Apr - 04:51:38 10° SSW 05:00:36 36° SSE 05:12:28 10° E visible
20 Apr - 06:53:42 10° WSW 07:04:48 51° S 07:18:50 10° ESE daylight
20 Apr - 08:57:32 10° W 09:09:52 47° SSW 09:23:44 10° SE daylight
20 Apr - 11:03:04 10° W 11:14:20 29° SW 11:25:42 10° SSE daylight
21 Apr - 04:17:13 10° SSW 04:25:25 32° SSE 04:36:20 10° E visible
21 Apr - 06:18:49 10° WSW 06:29:16 50° S 06:42:57 10° ESE daylight
21 Apr - 08:22:19 10° W 08:34:13 48° SSW 08:48:12 10° SE daylight
21 Apr - 10:27:22 10° W 10:38:51 31° SW 10:50:50 10° SSE daylight
21 Apr - 12:38:29 10° WSW 12:42:01 11° SW 12:45:31 10° SW daylight
22 Apr - 03:42:56 10° SSW 03:50:21 28° SE 04:00:08 10° E visible
22 Apr - 05:44:02 10° SW 05:53:49 47° SSE 06:07:00 10° E daylight
22 Apr - 07:47:11 10° WSW 07:58:35 49° S 08:12:34 10° ESE daylight
22 Apr - 09:51:50 10° W 10:03:19 34° SSW 10:15:48 10° SSE daylight
22 Apr - 12:00:38 10° WSW 12:06:48 14° SW 12:12:59 10° SSW daylight
23 Apr - 03:08:49 10° S 03:15:22 24° SE 03:23:52 10° E visible
23 Apr - 05:09:20 10° SW 05:18:27 45° SSE 05:31:01 10° E visible
23 Apr - 07:12:10 10° WSW 07:23:00 50° S 07:36:51 10° ESE daylight
23 Apr - 09:16:25 10° W 09:27:46 36° SSW 09:40:36 10° SSE daylight
23 Apr - 11:23:55 10° W 11:31:32 16° SW 11:39:20 10° SSW daylight
24 Apr - 02:34:55 10° S 02:40:29 20° SE 02:47:29 10° E visible
24 Apr - 04:34:44 10° SW 04:43:11 41° SSE 04:55:00 10° E visible
24 Apr - 06:37:14 10° WSW 06:47:28 50° S 07:01:02 10° ESE daylight
24 Apr - 08:41:08 10° W 08:52:14 38° SSW 09:05:16 10° SE daylight
24 Apr - 10:47:40 10° W 10:56:12 19° SW 11:05:10 10° S daylight
25 Apr - 02:01:19 10° SSE 02:05:40 15° SE 02:10:54 10° ESE visible
25 Apr - 04:00:14 10° SW 04:08:01 38° SSE 04:18:57 10° E visible
25 Apr - 06:02:23 10° WSW 06:12:01 49° S 06:25:10 10° ESE daylight
25 Apr - 08:05:58 10° W 08:16:41 40° SSW 08:29:49 10° SE daylight
25 Apr - 10:11:46 10° W 10:20:50 21° SW 10:30:40 10° S daylight
